This is the latest recevied weather packets stored in our database for station/object KM5R. If no packets are shown the sender has not sent any weather packets the latest 10 day(s).
| Time | Temp. | Humidity | Pressure | Rain* | Wind** | Luminosity | Snow |
|---|---|---|---|---|---|---|---|
| 1777510989 | 15.56° C | 82% | 1014.9 hPa | 0 mm | - | 1 W/m² | - |
| 1777510686 | 16.11° C | 82% | 1015.5 hPa | 0 mm | - | 1 W/m² | - |
| 1777510382 | 16.11° C | 82% | 1015.7 hPa | 0 mm | - | 2 W/m² | - |
| 1777510078 | 16.11° C | 82% | 1016 hPa | 0 mm | - | 3 W/m² | - |
| 1777509775 | 15.56° C | 82% | 1015.4 hPa | 0 mm | - | 5 W/m² | - |
| 1777509471 | 16.11° C | 82% | 1015.4 hPa | 0 mm | - | 5 W/m² | - |
| 1777509169 | 15.56° C | 83% | 1015.1 hPa | 0 mm | - | 10 W/m² | - |
| 1777508866 | 16.11° C | 83% | 1014.7 hPa | 0 mm | - | 17 W/m² | - |
| 1777508563 | 15.56° C | 83% | 1014.4 hPa | 0 mm | - | 26 W/m² | - |
| 1777508259 | 15.56° C | 83% | 1014.7 hPa | 0 mm | - | 23 W/m² | - |
| 1777507957 | 15.56° C | 83% | 1014.7 hPa | 0 mm | - | 18 W/m² | - |
| 1777507653 | 15.56° C | 83% | 1014.9 hPa | 0 mm | - | 18 W/m² | - |
| 1777507350 | 15.56° C | 83% | 1014.7 hPa | 0 mm | - | 18 W/m² | - |
| 1777507048 | 15.56° C | 83% | 1014.7 hPa | 0 mm | - | 21 W/m² | - |
| 1777506745 | 15.56° C | 83% | 1014.7 hPa | 0 mm | - | 25 W/m² | - |
| 1777506441 | 15.56° C | 83% | 1014.6 hPa | 0 mm | - | 21 W/m² | - |
| 1777506137 | 15.56° C | 83% | 1014.8 hPa | 0 mm | - | 26 W/m² | - |
| 1777505832 | 15.56° C | 84% | 1014.8 hPa | 0 mm | - | 23 W/m² | - |
| 1777505530 | 15.56° C | 84% | 1014.9 hPa | 0 mm | - | 29 W/m² | - |
| 1777505226 | 15.56° C | 84% | 1015 hPa | 0 mm | - | 19 W/m² | - |
| 1777504923 | 15.56° C | 84% | 1014.9 hPa | 0 mm | - | 24 W/m² | - |
| 1777504620 | 15.56° C | 84% | 1015.1 hPa | 0 mm | - | 20 W/m² | - |
| 1777504316 | 15.56° C | 84% | 1014.7 hPa | 0 mm | - | 23 W/m² | - |
| 1777504012 | 15.56° C | 84% | 1015 hPa | 0 mm | - | 25 W/m² | - |
| 1777503709 | 15.56° C | 84% | 1014.7 hPa | 0 mm | - | 34 W/m² | - |
* Rain latest hour (hover to see other rain measurements)
** Current wind speed in m/s (hover to see current wind gust speed)